Starlink 35056

operational
NORAD ID: 66267 Int'l Des: 2025-247 Owner: SPXS Country: US Constellation: starlink
NOTLE

Starlink 35056について

説明を読み込み中...

リアルタイム位置

3D地球を読み込み中...

次回通過

高度履歴

Altitude vs Time

uPlot chart will show altitude changes over time

軌道要素

1 66267C 25247B 25305.07131944 .00459950 00000+0 69569-3 0 3051
2 66267 53.1569 79.7350 0008715 262.5059 344.6486 16.03303768 12
Epoch: Nov 1, 2025 • Age: 52 hours

現在のステータス

高度 260.7 km
速度 7.75 km/s
衛星直下点 -1.72°S, 143.28°E
打ち上げ日 Oct 31, 2025
運用期間 2 days
タイプ internet

技術仕様

分類 Payload
質量 575.00 kg
乾燥質量 530.00 kg
総質量 575.00 kg
長さ 0.30 m
直径 4.10 m
スパン 29.00 m
形状 Box + pan
製造者 SPXS
バスタイプ Starlink V2MO
フェーズステータス In Orbit
所有者/国 SPXS/US

大規模コンステレーション

Loading constellations...